GFSSGP_700_rhum_102.txt.gz
RH
11 10 9 10 19 12 10 11 9 15 16 14 15 24 39 42 43 40 49 56 57 55 59 63 62 61 61 59 54 47 38 30 24 15 12 14 14 23 21 34 44 43 74 74 70 67 50 10 11
10 9 9 19 19 16 13 12 12 30 30 30 28 29 38 41 44 43 42 42 50 63 71 71 65 61 59 59 57 52 43 35 26 19 16 20 20 42 45 40 48 57 79 78 74 71 50 12 12
10 9 12 13 17 14 14 15 15 17 29 49 41 30 42 44 42 42 42 44 61 57 53 57 56 60 63 62 64 57 50 40 30 22 24 44 39 35 51 44 52 64 74 82 72 73 49 14 12
9 11 14 19 14 12 12 15 17 16 16 25 34 39 40 47 51 51 50 57 72 62 58 60 61 61 58 59 64 61 55 46 34 21 43 62 70 49 36 42 59 63 76 81 70 74 53 16 14
11 13 15 15 16 15 16 15 14 16 22 29 24 38 43 47 49 69 58 61 65 80 76 72 69 66 62 58 56 56 56 50 38 23 16 21 60 60 41 43 56 66 67 75 74 70 50 17 15
12 12 14 14 14 14 14 13 14 18 18 35 47 36 46 44 60 74 64 66 72 79 78 76 74 71 66 64 62 59 57 56 43 30 18 15 30 55 47 62 61 69 72 76 76 71 47 18 16
12 12 12 12 13 14 14 13 12 11 19 32 43 45 45 46 46 52 56 67 72 73 71 74 75 77 73 66 64 64 66 70 64 41 22 16 43 53 52 67 67 74 77 79 75 68 42 19 17
12 13 12 12 11 13 12 13 14 14 15 20 34 47 48 46 45 46 49 63 76 74 71 73 76 78 74 76 72 72 72 75 76 72 51 21 15 68 69 64 82 79 88 86 70 73 53 21 19
12 14 11 12 11 12 12 12 13 14 15 15 29 42 48 50 54 47 47 56 65 77 81 78 79 83 83 82 83 85 86 79 73 69 72 56 24 32 60 58 88 84 85 86 78 68 52 25 20
12 12 12 12 12 12 12 11 11 12 13 17 19 40 46 49 50 54 50 51 69 70 86 92 92 93 93 90 91 90 91 81 75 68 66 53 44 39 64 62 89 89 83 84 76 62 44 25 19
12 11 12 12 12 11 9 8 8 8 8 10 14 28 46 49 49 46 50 51 55 70 76 83 88 92 88 89 96 89 84 88 84 78 71 55 55 55 64 71 75 94 86 82 69 56 38 24 21
14 13 11 10 9 8 7 7 6 7 7 7 7 10 18 49 52 50 45 49 51 63 82 78 78 84 88 96 98 95 96 96 87 86 94 76 59 65 77 86 97 98 94 83 77 56 34 25 24
12 10 9 9 9 8 8 7 8 7 10 11 10 7 7 13 44 54 50 46 57 65 68 74 68 72 75 79 99 98 99 99 89 73 64 80 88 81 71 87 83 89 95 82 85 50 33 26 25
11 9 9 10 9 10 11 11 14 9 15 15 16 14 10 7 9 42 58 50 49 64 69 65 67 67 72 70 83 100 100 100 95 80 70 61 77 82 76 71 84 94 94 89 91 43 32 32 29
10 10 11 11 12 16 17 11 13 22 30 20 22 22 20 18 10 8 38 66 64 61 66 68 67 64 63 70 81 85 92 94 95 92 79 69 63 61 79 76 79 88 96 96 93 77 35 36 34
11 11 11 14 19 28 30 14 20 31 39 28 31 28 25 22 23 13 10 45 90 88 71 72 61 57 57 58 62 65 67 72 66 82 88 70 66 66 67 59 66 83 95 87 100 89 41 35 39
11 16 20 24 40 44 50 26 27 50 57 46 41 34 25 21 30 24 13 13 66 98 97 82 73 58 54 53 58 54 53 53 55 68 66 67 65 71 69 68 67 77 88 91 96 98 75 42 45
18 27 30 38 59 60 55 33 42 58 57 43 35 29 26 23 29 32 24 20 29 87 96 96 91 73 64 55 53 51 46 49 49 56 49 78 82 71 64 74 74 85 90 94 100 99 100 78 53
33 38 46 47 66 62 58 48 58 52 39 39 24 26 22 34 48 38 36 40 20 51 86 93 85 81 70 60 54 49 43 58 66 66 64 73 72 68 78 86 93 95 94 88 81 99 100 96 83
41 46 42 51 68 89 77 69 63 50 51 55 34 39 33 44 51 41 47 51 37 28 65 88 84 76 67 60 58 60 60 67 76 64 51 70 74 76 84 88 91 98 97 98 94 91 98 96 80
41 56 61 77 93 95 98 86 65 56 57 47 42 36 41 46 45 42 44 52 45 23 49 58 72 72 64 47 23 18 28 58 73 75 68 68 73 81 92 82 100 97 99 98 99 100 99 100 99
54 66 77 99 99 96 99 94 69 48 47 54 36 42 40 38 43 55 58 54 39 27 23 44 54 61 66 60 49 18 14 44 58 64 65 66 61 70 93 87 98 100 99 99 99 100 98 98 88
74 85 100 100 99 100 96 99 58 57 48 78 85 63 68 60 76 72 75 73 54 42 37 43 44 57 56 52 34 15 34 55 64 65 62 58 65 84 89 91 76 96 98 99 99 100 97 97 99
90 96 99 99 99 98 80 95 70 80 96 99 98 77 85 71 98 96 94 80 66 60 57 56 55 54 57 42 19 22 58 66 72 73 71 69 66 72 84 87 79 73 87 96 100 100 100 99 97
98 99 96 87 94 84 84 100 71 82 96 97 98 96 86 82 88 98 98 89 76 80 70 66 58 45 38 35 35 60 68 67 73 72 69 71 76 81 86 89 91 96 94 99 100 100 100 99 90
100 98 97 98 98 92 100 91 95 98 93 99 99 99 95 100 98 98 91 91 81 80 77 81 74 66 56 51 74 76 73 75 73 70 75 74 88 89 98 92 84 97 100 99 97 100 100 99 96
92 97 98 100 98 99 84 92 93 98 98 100 99 99 99 98 99 93 95 85 83 74 69 72 74 94 98 88 97 92 86 78 83 84 84 99 91 98 98 97 99 95 100 100 99 100 98 100 98
80 82 91 92 99 94 83 94 98 98 97 99 99 98 100 99 99 100 98 98 85 79 71 100 93 100 98 96 97 100 100 100 98 100 100 100 100 100 100 100 100 99 100 100 100 100 100 100 100
77 78 82 98 96 98 97 93 98 99 98 98 99 98 98 98 98 99 99 99 95 96 99 98 93 94 100 100 99 98 100 99 100 100 99 100 100 100 100 99 100 100 100 99 100 100 100 99 100
72 70 75 91 78 84 93 82 74 92 99 100 99 98 97 98 98 99 97 98 99 100 85 83 99 100 99 100 100 99 98 98 98 100 100 98 76 78 90 87 89 97 100 100 100 100 100 99 98

GFSSGP_700_rhum_105.txt.gz
RH
12 11 10 10 13 11 10 11 10 15 15 15 17 38 41 38 34 32 52 57 61 60 51 53 62 63 62 57 56 53 46 38 32 24 17 17 19 17 19 25 38 43 54 75 70 63 56 16 10
11 11 11 14 17 13 14 13 15 15 18 27 22 21 29 42 43 40 42 44 45 63 75 72 71 69 63 54 55 56 52 44 36 26 21 24 21 27 42 34 41 45 58 65 75 64 62 26 11
10 10 13 14 14 15 15 18 16 19 29 34 27 25 28 35 43 43 43 43 44 62 58 49 60 58 58 56 58 58 59 53 47 37 30 51 49 35 53 46 43 55 76 79 77 68 64 36 13
10 11 15 15 12 13 14 16 16 18 18 19 39 36 33 32 37 40 42 47 51 60 58 56 59 58 59 60 58 60 59 56 47 39 32 55 68 66 39 46 54 60 68 77 75 75 69 43 15
12 13 16 17 17 16 16 16 16 18 21 19 16 28 40 36 39 46 45 50 42 70 72 65 60 57 58 57 58 59 60 58 49 39 41 40 49 64 67 40 55 64 67 72 65 71 73 53 19
14 14 14 14 13 14 14 14 14 16 20 20 25 27 35 40 43 46 51 60 54 62 76 76 73 67 61 59 60 58 60 61 52 43 31 28 34 46 60 58 64 63 70 73 72 73 70 57 30
12 12 12 12 11 13 13 14 14 14 15 20 25 29 39 33 42 55 57 59 66 69 71 81 78 78 74 70 66 63 62 61 64 62 40 24 28 37 55 57 73 71 72 78 80 74 67 50 32
13 13 12 11 11 11 10 10 11 13 14 16 17 28 34 40 40 44 52 62 60 69 72 70 75 78 79 78 73 71 70 70 72 67 66 56 28 24 57 64 65 81 84 82 83 78 65 42 31
14 12 11 10 10 9 9 9 10 10 11 14 17 18 28 38 44 43 43 44 50 64 72 69 69 72 78 77 78 84 85 83 85 79 71 64 57 34 21 66 69 86 90 90 86 77 65 42 28
13 12 11 10 10 10 10 9 10 10 10 10 10 15 17 27 45 49 48 44 44 49 63 69 75 77 78 82 83 86 96 97 91 81 76 70 62 54 35 36 62 65 89 86 80 77 66 49 32
13 12 10 11 11 11 10 9 8 8 7 7 7 8 10 15 22 42 51 50 46 46 54 63 69 83 82 89 93 88 94 100 93 86 79 73 61 52 47 43 55 64 88 87 85 80 70 54 33
13 12 13 12 11 9 8 8 7 7 6 7 7 6 6 6 10 21 38 48 49 48 54 72 74 80 84 86 85 90 95 94 87 94 87 82 68 57 57 63 68 72 70 90 93 88 73 52 39
15 14 12 10 9 8 8 7 7 6 9 10 10 10 9 8 8 8 15 34 48 48 52 60 75 79 78 76 79 90 98 99 99 94 86 83 93 83 79 82 80 87 97 96 98 94 80 58 38
14 12 10 9 9 9 8 9 9 11 13 15 15 14 13 12 10 9 9 10 41 50 48 65 70 85 79 72 73 72 81 99 100 100 94 77 70 78 92 88 88 92 98 99 100 94 91 66 35
13 11 10 9 9 11 10 10 14 19 26 26 24 24 24 23 21 20 18 11 10 42 52 57 80 76 73 69 68 68 72 99 97 98 98 96 78 65 72 83 83 76 74 87 95 99 99 84 46
11 10 10 10 10 16 18 16 19 32 26 20 19 25 32 29 32 31 30 26 14 13 54 53 69 81 76 68 64 63 74 96 91 99 96 94 86 79 73 70 64 62 68 73 81 77 99 89 72
10 10 10 11 18 28 30 21 28 39 34 26 37 38 29 19 15 12 16 21 22 16 28 76 57 68 82 76 67 65 65 76 63 78 82 77 69 58 68 66 64 67 64 61 67 72 92 93 99
12 14 15 16 34 34 28 20 31 48 38 41 33 20 24 21 16 14 12 18 20 20 17 93 83 60 75 80 69 63 72 62 62 62 61 59 53 46 54 70 72 65 67 66 68 77 83 91 99
18 24 25 30 47 44 34 36 34 47 47 34 31 39 40 29 24 23 22 21 42 32 14 83 97 80 78 81 65 57 55 54 53 61 54 46 52 59 72 74 63 76 80 76 83 85 92 95 98
29 30 40 40 55 71 58 43 40 51 41 49 47 48 43 32 28 37 42 50 49 28 20 36 90 86 84 90 73 64 58 51 47 40 41 47 56 63 71 74 64 77 79 86 84 89 93 89 86
34 48 61 73 88 84 73 52 52 57 62 58 59 65 54 41 32 39 46 48 37 27 24 25 60 95 75 87 77 63 49 42 45 54 63 66 68 72 59 63 66 73 78 78 94 98 100 97 96
50 61 81 97 99 96 91 91 65 56 54 57 65 70 61 46 53 60 48 44 42 37 30 28 58 90 96 97 81 64 34 25 15 22 53 72 72 65 68 64 67 70 78 83 85 98 97 100 98
81 81 96 100 100 99 90 100 68 67 61 72 74 80 57 62 68 74 78 71 63 43 48 30 59 93 87 83 72 65 59 49 27 18 42 59 64 66 74 72 81 83 85 94 96 94 98 100 100
87 98 95 99 100 97 79 96 73 66 90 87 88 83 74 91 92 96 97 97 70 57 52 46 42 76 73 69 68 64 60 42 25 31 53 71 77 73 73 73 70 71 82 89 89 98 97 99 98
98 89 92 85 92 82 86 100 62 82 90 92 96 97 85 98 98 98 98 96 88 87 76 62 76 83 76 68 70 69 58 41 35 58 72 76 77 77 75 74 82 82 84 90 89 91 91 87 90
99 96 96 95 97 90 100 97 80 90 97 94 99 99 94 99 99 96 98 91 90 93 92 91 76 81 85 78 79 74 50 37 59 70 71 76 69 66 74 84 96 98 87 89 95 100 99 97 100
81 98 99 97 93 98 82 85 82 96 96 95 99 99 97 100 99 99 96 94 99 98 94 94 96 96 93 75 99 97 85 90 85 74 72 79 83 85 100 90 86 87 94 89 99 100 98 100 99
83 89 92 84 92 96 74 86 92 84 90 91 93 96 97 98 98 98 99 99 98 99 96 99 87 95 99 99 100 99 95 97 90 94 94 93 99 100 100 99 99 100 98 100 99 100 98 98 100
77 76 78 93 98 96 96 73 72 73 82 84 85 91 97 97 97 97 98 100 100 99 100 98 99 100 100 100 95 99 100 100 88 96 100 100 98 99 100 100 99 100 100 100 100 100 99 99 99
78 79 72 83 80 89 93 76 73 69 77 81 84 86 85 92 97 98 98 98 99 99 100 98 99 96 99 100 100 99 99 100 100 100 97 100 99 98 89 73 83 96 97 99 100 99 100 98 99

GFSSGP_700_rhum_108.txt.gz
RH
11 11 10 10 15 13 23 16 10 13 14 11 11 21 34 25 46 44 48 58 60 50 46 48 54 62 60 60 54 53 52 44 36 33 66 25 23 21 19 25 32 44 46 70 69 56 53 22 10
12 11 11 11 31 19 23 12 16 16 16 16 14 16 27 42 30 31 50 52 51 64 72 69 66 68 66 62 53 54 54 54 48 35 26 31 26 20 35 30 40 45 50 73 69 65 65 45 12
12 12 12 14 20 20 29 16 15 16 18 22 25 20 19 22 27 32 40 44 44 64 65 60 70 74 64 62 57 52 53 56 54 46 32 34 56 35 46 46 42 50 76 86 80 67 69 59 24
11 12 15 20 28 18 22 18 15 16 18 22 36 36 25 20 20 31 34 38 42 44 56 52 53 64 65 63 65 64 60 58 56 50 39 42 66 61 44 49 47 58 80 88 74 66 66 56 39
11 13 17 17 21 14 14 15 16 18 16 17 23 41 31 28 20 22 34 39 44 46 48 48 55 64 65 64 67 63 60 59 60 57 49 50 52 62 71 63 51 63 69 83 74 65 65 56 38
14 16 21 26 17 17 16 17 17 18 17 16 19 20 24 24 29 26 35 49 51 55 41 55 64 64 64 58 59 62 62 61 62 61 46 36 31 45 60 69 54 62 65 81 73 68 66 58 38
14 15 17 13 12 13 13 13 14 15 16 16 17 22 25 22 24 32 35 50 54 55 64 67 73 74 72 70 70 61 65 64 64 65 59 43 34 36 42 57 62 72 67 76 81 75 65 60 40
13 12 11 11 11 12 11 10 11 11 12 13 14 16 24 24 32 34 37 49 66 58 60 71 73 76 76 72 74 74 72 72 69 69 71 59 31 24 35 53 63 66 81 76 84 81 70 61 43
14 13 12 11 10 10 9 9 9 9 9 9 9 11 14 20 27 33 36 43 61 68 61 62 71 75 74 77 77 77 77 78 78 75 70 64 58 41 22 35 68 69 81 87 88 85 79 61 44
14 13 11 9 9 9 9 9 9 9 8 8 8 8 8 9 13 18 28 36 41 44 50 57 64 69 69 70 76 78 79 84 88 86 83 78 70 60 49 43 48 75 74 91 89 82 80 68 48
13 11 10 9 9 9 9 9 9 9 8 7 7 6 6 6 7 9 16 27 35 44 44 47 54 61 70 72 75 76 78 86 99 92 90 83 76 67 57 52 60 53 66 71 90 84 83 76 58
13 12 12 12 11 11 10 9 8 8 7 7 6 6 6 6 6 6 6 11 23 30 43 49 50 59 65 70 74 80 86 94 95 98 92 86 81 72 62 53 60 63 74 71 94 92 88 90 64
16 14 14 12 11 10 9 8 8 7 7 7 8 9 8 9 9 8 8 7 6 13 36 48 50 55 68 73 85 85 87 87 91 99 92 90 86 84 70 65 70 71 80 80 86 97 97 95 82
16 14 12 10 9 9 9 8 8 8 9 13 14 13 12 12 14 19 20 18 11 9 7 24 44 50 58 76 84 82 88 90 87 98 93 95 87 89 96 84 75 77 87 96 96 95 96 94 96
17 14 12 10 9 10 9 10 12 12 15 19 17 14 15 16 16 17 19 19 21 16 13 9 10 38 50 56 75 80 79 78 82 91 96 100 88 83 84 88 90 90 85 92 96 96 93 89 100
15 13 12 10 9 11 12 26 13 19 19 16 14 15 17 19 27 28 26 24 25 25 26 23 12 11 38 54 63 82 74 73 83 97 100 98 94 92 85 80 77 76 76 79 80 78 86 90 97
14 19 9 9 10 12 16 15 15 18 19 13 21 26 30 27 22 27 24 20 16 14 14 24 18 14 24 49 73 75 72 70 74 92 95 96 98 97 90 68 67 68 65 66 66 66 71 70 84
13 13 12 12 18 16 17 18 14 26 24 30 34 36 22 18 27 31 28 20 16 18 15 11 22 19 32 44 65 80 68 72 76 83 72 74 93 95 79 66 53 53 66 63 63 67 69 71 69
16 17 17 16 23 20 18 21 26 32 35 41 34 22 27 26 34 42 27 22 16 20 18 17 22 27 77 62 52 78 74 71 78 78 81 90 96 98 86 62 56 58 66 60 59 64 69 76 74
20 21 30 28 35 39 31 30 33 37 46 36 30 47 48 44 45 38 39 35 21 28 38 32 35 26 86 99 70 71 80 75 81 88 75 71 68 65 80 76 73 83 70 57 56 70 73 81 82
26 34 41 58 55 58 56 60 43 51 47 47 65 71 66 50 56 52 49 52 46 32 43 47 38 22 63 95 96 96 93 85 78 76 70 69 77 84 76 74 80 68 75 55 68 77 73 86 86
40 50 69 84 89 91 81 77 66 54 58 65 71 66 58 61 83 87 71 74 74 55 40 39 36 34 39 96 97 100 93 88 74 66 70 80 81 82 83 79 75 75 72 57 62 79 79 90 95
66 76 83 90 95 96 95 99 67 63 70 70 74 72 69 76 70 69 74 80 74 70 64 49 45 40 39 90 98 97 97 100 88 76 71 44 42 68 78 79 72 71 67 59 65 76 85 87 90
77 74 87 98 98 95 77 91 63 72 72 77 79 71 75 72 82 73 69 78 73 74 70 55 48 40 65 99 97 99 93 94 74 47 34 26 29 47 57 56 60 59 62 72 78 76 84 89 87
84 93 86 88 94 69 73 100 66 68 74 82 79 86 79 74 88 87 92 94 98 84 75 58 44 52 77 93 98 98 98 85 75 67 53 34 43 59 62 74 81 81 76 76 78 82 82 91 93
82 90 88 92 76 68 98 98 83 63 69 78 81 85 85 85 88 94 98 99 100 97 75 77 73 73 78 95 98 92 85 79 74 65 54 32 61 82 79 83 79 75 72 83 88 89 94 94 89
82 100 95 94 89 90 76 70 68 58 68 68 75 84 88 84 98 93 98 100 100 94 99 86 93 97 85 77 86 88 89 80 71 47 44 59 74 77 77 73 74 81 90 95 93 95 96 92 99
80 81 95 96 84 76 60 73 80 59 62 61 61 73 83 85 86 88 98 100 100 100 99 100 99 92 86 86 87 87 77 65 63 81 97 96 91 99 98 99 97 100 99 98 100 98 100 97 86
86 96 80 86 89 72 57 54 63 56 70 62 66 70 74 81 89 93 97 99 100 100 99 99 100 96 93 96 93 100 100 100 100 98 97 100 100 100 100 100 100 100 99 100 100 100 100 100 99
72 77 84 65 69 81 80 65 66 57 62 65 67 75 77 81 85 94 97 99 99 99 100 98 93 100 99 93 91 99 100 100 99 100 100 100 100 100 99 99 100 99 99 97 90 99 99 100 100

GFSSGP_700_rhum_111.txt.gz
RH
8 8 8 7 30 28 19 27 40 44 29 26 12 22 42 40 42 57 44 46 46 42 39 45 50 62 56 60 57 54 54 49 48 39 36 60 24 21 18 21 28 40 51 70 68 60 58 37 12
11 10 10 31 43 23 20 37 42 54 32 12 12 14 30 54 21 30 34 53 55 64 45 46 52 61 64 63 58 55 53 53 55 51 38 34 49 20 25 28 32 45 50 71 65 58 61 51 23
12 11 20 40 24 22 28 37 52 22 14 15 30 16 36 41 18 25 32 52 51 70 62 70 70 67 68 70 67 65 59 54 57 55 46 37 48 41 34 42 37 44 62 91 78 62 62 53 37
12 12 18 33 23 35 44 43 19 19 19 23 24 46 20 16 13 20 28 41 47 53 64 60 60 70 70 69 65 66 66 64 62 64 48 38 56 61 47 46 45 48 70 89 88 64 62 59 46
11 21 42 31 30 45 41 27 15 28 34 33 22 45 41 24 19 17 22 30 35 38 40 49 54 55 61 63 66 67 63 62 57 59 64 52 51 64 64 66 47 52 73 84 92 66 60 61 53
12 26 32 26 32 45 21 15 16 17 23 27 23 24 46 16 17 20 23 26 30 40 49 44 41 41 48 52 63 67 66 62 64 63 67 67 52 44 56 70 64 56 78 83 97 77 61 62 58
50 20 27 26 32 40 24 14 15 18 19 38 16 21 48 20 16 17 24 34 43 47 46 48 44 51 60 62 54 52 58 54 66 66 65 62 55 49 50 53 67 65 60 72 86 88 67 63 61
19 27 32 29 28 39 11 11 11 11 23 10 11 29 37 50 15 20 22 30 42 54 57 52 60 72 69 69 65 64 67 64 69 67 68 67 64 61 57 56 57 64 69 78 78 90 81 65 62
14 17 29 35 24 32 9 9 8 7 8 8 8 9 10 11 10 13 18 24 31 49 68 64 63 74 75 76 74 69 66 71 71 73 71 69 67 52 31 36 52 60 68 76 83 88 89 75 65
14 28 32 15 13 13 8 8 7 7 8 8 8 7 7 7 8 8 10 12 19 29 40 70 69 68 73 78 78 74 76 74 74 73 76 71 66 62 56 36 25 37 68 71 85 90 93 85 72
14 37 14 10 9 8 8 8 8 8 8 10 7 7 6 6 6 6 6 7 9 11 18 30 40 47 55 76 75 70 72 74 77 76 76 77 75 71 66 59 46 55 50 69 78 91 92 90 80
13 13 11 10 9 9 9 9 8 8 8 7 7 7 6 6 6 6 6 6 6 6 8 15 23 38 43 47 66 78 76 76 76 75 83 81 79 78 75 72 60 64 68 60 68 76 94 96 96
15 13 12 12 11 10 10 10 9 8 8 7 7 6 7 7 8 8 8 8 8 7 6 6 9 15 32 43 47 62 75 77 83 92 95 89 84 81 78 76 69 62 67 73 74 78 85 98 98
14 14 13 12 11 11 10 10 9 8 8 8 8 9 10 12 11 11 11 12 12 13 12 12 10 6 8 29 43 52 68 82 88 98 95 88 86 92 86 84 81 82 81 79 82 80 80 88 93
16 15 14 12 11 10 10 10 11 10 9 10 13 12 13 12 12 12 13 13 14 14 14 20 17 14 10 7 21 44 61 87 92 90 92 92 91 96 93 92 94 93 90 87 88 90 91 84 91
15 14 28 22 11 10 10 15 33 10 10 11 11 10 11 15 20 25 26 24 23 21 21 21 25 21 15 10 10 28 45 69 91 87 82 92 99 94 87 92 98 98 98 96 96 92 96 97 92
17 23 25 30 15 11 12 17 9 9 13 11 11 18 29 35 32 27 21 20 21 23 22 19 18 18 26 24 14 21 41 55 78 84 82 84 97 96 100 92 94 90 85 89 82 82 82 82 84
29 23 28 26 42 13 11 9 7 10 15 20 28 34 37 28 21 20 21 23 25 23 17 16 15 13 18 17 25 19 30 58 84 86 83 96 91 98 100 99 96 97 91 75 72 71 70 69 72
16 14 17 38 29 13 14 19 12 21 22 32 37 34 27 28 35 30 27 28 26 26 30 31 22 14 12 16 19 22 16 50 99 89 88 90 99 83 77 81 94 99 88 71 80 78 74 71 66
16 16 48 28 31 35 27 15 29 27 35 39 36 36 43 48 46 38 42 40 38 38 42 54 33 23 28 22 22 26 29 49 90 98 91 98 89 83 69 73 70 88 90 74 64 79 73 60 74
20 27 42 51 41 54 67 50 34 34 40 43 51 58 59 57 51 58 51 48 52 65 67 72 51 37 49 49 43 33 70 77 81 99 95 94 100 84 69 58 57 71 74 51 71 52 71 71 79
63 39 55 67 78 80 67 62 52 54 46 57 63 70 67 61 62 74 61 54 50 68 56 69 63 42 42 36 35 36 82 76 78 88 90 95 98 73 62 74 85 85 87 85 85 81 65 72 81
66 63 66 61 87 92 83 86 52 52 59 70 67 70 72 70 71 70 66 60 62 69 62 62 71 69 45 46 37 53 85 87 86 90 98 100 86 83 86 85 88 90 88 81 79 79 68 68 83
70 66 70 99 99 91 86 78 49 61 55 57 63 71 73 64 72 77 78 77 70 76 75 65 57 52 47 68 65 84 97 96 93 99 100 97 85 82 86 63 45 58 76 80 76 76 77 74 79
76 84 81 82 88 72 85 80 48 61 51 61 56 60 66 71 77 79 81 71 71 92 84 74 69 50 50 62 78 88 100 98 99 98 98 95 76 49 37 42 51 60 65 70 73 70 68 75 72
92 89 84 84 69 63 88 89 72 54 56 56 51 53 63 76 85 80 74 74 78 80 94 85 99 91 87 88 91 98 98 96 95 98 93 74 72 67 56 53 79 84 77 89 87 85 78 77 81
97 91 84 92 78 82 70 77 58 55 63 57 48 49 52 65 77 86 83 82 98 100 98 97 91 95 98 98 97 96 97 96 95 86 71 67 58 48 39 40 72 79 77 86 87 82 84 86 91
74 66 87 99 74 68 49 57 64 57 47 47 51 55 56 57 70 78 80 86 97 100 94 100 98 90 90 83 74 74 88 88 75 65 66 75 67 73 92 89 79 98 90 87 100 97 92 100 99
64 89 72 77 66 62 44 43 53 51 44 45 47 51 57 62 61 69 76 83 96 99 100 100 99 99 98 98 98 93 100 98 100 99 98 100 98 100 100 100 100 100 100 100 100 99 98 100 94
65 82 74 59 48 62 56 53 47 48 41 48 49 52 54 52 58 71 75 80 88 98 98 100 92 95 100 97 91 95 86 95 99 100 100 100 97 98 94 97 97 98 99 94 98 100 100 100 100

GFSSGP_700_rhum_114.txt.gz
RH
8 8 7 6 14 18 26 27 34 28 27 34 24 16 27 42 38 63 46 49 47 38 30 46 48 63 60 58 58 56 55 55 58 60 43 45 56 19 16 18 19 31 50 69 68 64 62 48 17
8 8 8 14 37 30 24 31 28 41 31 19 12 14 33 38 38 32 41 42 51 42 32 40 48 53 63 60 61 58 56 55 58 61 66 39 59 42 17 28 22 33 53 63 68 63 62 56 36
10 10 14 32 22 30 36 39 49 29 20 14 25 18 25 21 20 21 22 43 51 53 45 52 47 57 58 64 68 63 60 57 55 58 58 63 46 58 29 35 33 35 53 85 77 64 61 57 52
11 11 20 34 28 32 42 40 35 24 18 18 23 31 21 18 16 15 23 37 52 51 67 63 70 70 67 64 70 65 63 60 62 60 58 54 53 60 50 42 43 39 54 86 92 68 61 56 53
12 14 34 21 34 35 47 30 23 33 35 27 20 45 31 23 19 17 15 20 36 45 49 58 62 63 67 69 65 63 62 64 63 56 60 66 58 64 64 55 46 42 56 87 96 76 60 58 54
17 28 41 33 33 34 30 25 15 26 26 18 18 22 23 20 18 18 17 16 24 35 37 35 41 48 52 58 61 55 63 64 63 58 58 59 62 56 63 66 70 52 58 82 91 97 71 58 57
22 28 35 28 38 34 30 18 18 25 25 16 17 19 34 27 14 16 15 16 19 25 32 44 38 38 41 36 42 54 62 57 51 52 60 62 62 62 54 52 59 69 59 74 83 89 93 65 58
21 29 33 28 32 40 28 12 12 12 16 12 9 23 35 24 6 10 12 16 17 24 38 51 52 42 38 53 56 57 60 52 53 55 60 65 62 58 56 54 57 63 68 65 73 74 93 81 61
26 28 29 31 30 37 21 10 9 8 8 7 8 8 12 8 6 6 7 9 14 19 20 30 46 54 55 72 74 71 64 64 65 65 64 68 68 66 64 54 53 55 60 68 76 80 84 89 74
16 32 33 35 27 22 10 8 6 7 7 7 7 8 7 7 7 6 6 6 7 8 11 19 26 49 54 55 72 73 77 75 70 72 71 69 68 67 66 59 39 30 44 58 68 79 86 88 83
15 37 33 22 10 9 8 7 7 7 7 7 7 7 7 7 6 6 6 6 6 5 5 6 10 22 38 56 64 60 69 80 74 74 77 75 72 70 67 65 60 46 30 30 59 73 82 91 91
15 14 13 10 8 8 8 8 8 7 8 8 7 7 7 7 7 6 6 6 6 6 6 6 5 5 9 21 32 43 49 60 66 72 77 78 76 75 73 74 71 68 58 52 50 62 74 87 96
14 12 10 10 9 9 9 9 9 8 8 8 8 7 7 6 7 7 7 8 8 8 8 8 8 8 8 6 7 20 38 45 57 70 74 74 70 66 81 81 81 71 68 61 68 61 68 77 80
12 12 11 11 10 10 10 10 9 9 8 9 8 8 7 8 8 8 9 8 8 9 9 10 11 11 11 10 9 7 10 32 44 58 66 77 81 74 89 92 89 86 76 76 71 77 77 82 87
14 13 13 12 11 11 10 10 13 12 10 8 8 8 8 8 9 9 8 8 9 11 14 17 17 14 13 13 15 12 10 9 24 42 59 71 93 92 88 87 96 84 89 88 85 86 88 86 84
14 13 13 17 18 13 11 10 15 11 9 7 7 8 9 14 17 14 12 21 24 24 24 22 21 20 20 20 18 18 16 10 11 32 48 65 88 99 94 84 97 97 90 87 95 98 97 97 99
16 22 26 25 23 16 13 11 10 12 9 8 8 11 22 31 29 24 28 24 20 19 18 18 19 19 20 20 18 17 22 19 11 20 46 60 84 94 90 87 84 88 83 88 98 98 99 97 98
38 24 23 26 31 18 13 9 7 8 11 10 19 28 32 34 30 28 30 32 30 25 22 22 24 22 17 16 15 16 18 22 21 17 28 57 72 88 84 82 91 74 78 95 81 95 97 97 97
29 22 19 28 42 16 13 12 8 11 13 29 33 38 34 33 36 44 44 44 33 27 29 28 25 28 34 32 30 20 14 16 17 24 25 43 76 96 99 90 80 87 89 98 99 97 92 87 96
17 15 33 28 28 26 18 10 21 27 33 36 42 40 42 48 52 52 50 40 39 37 35 34 35 42 44 49 46 28 20 15 15 18 35 54 86 98 100 90 91 90 81 92 82 82 94 78 77
18 20 24 34 28 35 51 35 38 38 40 40 47 44 44 47 48 51 46 40 36 38 34 40 46 46 44 54 40 40 40 26 28 23 25 44 84 92 68 99 92 73 69 49 82 88 82 78 82
42 37 40 50 55 62 64 64 54 52 43 54 48 47 43 42 49 50 46 48 44 43 50 54 54 49 59 63 48 35 37 43 42 39 44 40 77 80 85 100 84 74 69 54 76 88 84 92 78
40 51 58 58 78 93 82 79 54 50 54 58 50 44 38 44 56 56 54 51 50 47 58 63 48 45 60 72 67 65 46 47 50 63 62 67 71 92 92 99 77 70 55 53 66 77 82 84 86
60 65 77 100 99 93 84 70 45 59 57 39 46 43 35 43 53 65 62 60 60 54 58 75 63 47 42 49 59 76 74 82 73 87 84 85 98 83 98 91 88 80 83 82 84 86 91 87 86
76 84 89 94 88 94 76 76 45 58 45 34 46 43 32 37 46 60 70 63 65 57 66 74 70 80 65 65 85 88 78 83 91 95 99 85 94 99 99 100 95 87 73 34 32 44 55 71 75
86 79 76 91 93 86 84 78 49 48 45 28 29 35 32 38 46 58 75 69 71 64 59 71 99 79 99 98 96 93 87 88 99 100 88 87 99 97 95 79 57 44 41 39 45 54 64 78 83
89 86 56 79 78 81 70 57 52 62 45 30 32 35 36 36 48 55 70 78 86 81 79 85 92 98 97 100 100 94 96 97 98 84 86 97 98 83 74 65 61 56 50 46 48 60 76 83 81
72 71 88 91 93 87 55 60 52 50 47 33 30 36 38 40 43 56 62 73 78 84 90 95 98 87 100 100 98 100 97 99 94 98 98 98 96 77 64 56 48 46 88 81 84 93 94 74 100
71 67 63 73 67 88 75 50 53 54 48 38 32 37 39 44 43 40 52 68 76 77 92 99 99 99 99 100 99 98 99 99 97 99 100 100 100 94 91 88 83 94 94 99 99 99 99 100 98
76 86 81 70 54 62 61 61 42 43 44 46 43 36 43 46 49 48 47 48 56 77 87 93 97 99 100 99 100 100 100 100 99 100 99 96 98 98 96 90 90 88 98 90 90 89 99 98 99

GFSSGP_700_rhum_117.txt.gz
RH
9 9 7 6 7 8 17 32 28 27 26 20 22 23 30 30 32 38 42 53 53 48 35 48 49 56 62 57 56 54 54 53 56 59 59 42 55 47 18 16 19 23 37 55 65 67 60 48 21
8 8 7 7 18 20 30 37 29 25 21 20 21 20 21 29 34 39 41 42 43 41 36 30 47 51 63 60 60 58 56 54 54 57 61 63 42 78 27 23 22 26 41 54 65 70 62 54 43
8 8 8 10 34 35 41 42 37 26 23 20 13 14 19 20 31 40 35 35 44 39 39 40 45 57 63 63 62 62 60 56 55 55 58 59 64 52 49 29 32 30 42 74 76 67 63 56 50
9 9 12 18 36 36 37 40 40 37 27 15 16 18 19 20 25 22 21 29 41 48 50 59 60 49 62 64 69 69 66 63 58 58 59 58 55 56 59 44 41 36 45 68 86 69 61 55 51
11 11 18 28 42 45 38 36 34 24 20 21 22 20 21 24 20 18 16 18 28 42 50 60 66 68 71 70 69 72 71 66 64 65 59 57 58 59 62 64 48 42 43 64 91 89 65 58 55
12 15 20 21 38 38 32 32 32 22 19 18 20 20 22 18 18 17 17 18 19 21 33 44 50 55 61 61 64 66 66 65 66 64 58 55 55 59 59 61 63 62 44 59 87 97 85 63 59
13 18 27 34 37 36 30 27 17 16 16 19 21 20 16 12 13 17 16 15 16 19 20 23 28 29 31 37 42 48 50 50 64 69 60 53 57 59 61 60 56 61 67 55 76 84 94 87 63
15 21 31 40 40 35 32 23 17 16 12 11 12 15 9 6 6 7 8 11 14 17 19 23 23 26 28 33 38 40 48 62 64 58 54 62 61 65 63 60 57 53 58 66 64 77 78 94 80
18 24 32 32 38 31 28 15 11 10 9 7 8 12 15 5 6 7 6 7 7 8 13 20 24 30 32 36 31 42 61 69 74 70 63 68 71 71 68 66 62 59 56 58 64 65 70 79 89
26 30 32 30 29 26 19 9 8 8 8 7 7 7 7 7 8 7 6 6 6 5 6 7 12 19 22 27 37 38 44 58 73 78 78 69 68 75 75 70 67 64 48 47 56 62 68 77 82
23 28 31 29 23 13 9 7 7 7 6 6 6 6 7 7 7 7 7 6 6 6 6 6 5 5 8 13 19 29 41 47 49 58 77 78 76 79 77 74 72 68 62 44 31 46 62 76 84
17 21 23 20 12 8 7 6 6 6 8 7 7 8 8 8 7 7 6 6 6 6 6 6 6 6 6 5 6 11 24 34 37 39 45 64 63 70 79 76 73 73 72 67 58 37 36 67 78
15 14 13 10 9 8 8 8 8 7 8 8 8 8 8 7 7 7 7 6 6 6 7 7 7 7 8 8 7 7 6 10 19 24 40 41 47 53 57 66 67 72 78 79 77 69 57 55 69
14 12 10 9 9 9 9 9 8 8 9 9 9 8 8 7 7 6 6 6 5 6 7 7 7 8 8 10 10 10 10 9 8 9 19 40 43 58 74 68 63 77 86 88 88 81 70 68 68
12 10 10 9 9 9 8 8 10 10 9 9 8 8 7 7 7 6 5 6 9 10 12 15 16 16 17 17 17 17 15 12 11 11 9 20 36 44 51 59 78 91 91 88 88 90 86 82 79
12 11 10 11 13 14 12 10 11 10 10 9 8 7 8 8 6 6 13 20 20 21 22 21 20 19 18 17 16 15 16 18 19 16 14 12 28 41 53 63 76 92 88 73 79 93 95 91 98
13 19 25 22 21 16 13 13 12 10 9 8 8 10 10 10 18 28 28 28 28 29 31 32 31 29 23 20 19 20 19 16 17 18 20 18 13 32 53 63 78 78 87 80 82 82 90 84 92
26 20 24 26 22 16 15 12 9 10 10 9 11 13 17 29 34 36 39 40 38 40 40 35 28 25 24 26 26 25 23 17 16 17 17 20 28 16 38 63 80 80 82 85 90 87 84 84 100
28 27 23 21 18 15 15 12 8 9 10 14 23 27 32 40 41 37 36 32 35 44 36 30 28 27 27 28 28 29 30 31 29 18 15 16 50 47 33 45 71 81 82 85 96 88 80 88 82
17 17 16 21 22 21 12 8 10 12 19 27 33 35 39 36 33 30 32 33 41 41 35 32 28 28 32 32 34 36 39 43 45 31 17 16 18 52 50 45 56 74 80 88 93 100 99 96 99
17 16 16 19 15 23 21 14 22 31 36 37 35 38 37 36 32 30 36 41 45 39 40 34 34 37 39 35 28 39 51 43 40 38 32 20 17 31 57 59 68 70 80 81 97 99 93 77 77
17 27 28 29 29 39 42 50 25 30 48 40 38 40 46 40 30 28 36 44 48 46 45 34 34 44 38 22 21 44 62 45 33 33 34 33 24 23 45 60 92 98 99 93 98 95 72 81 78
26 30 39 44 57 74 64 78 40 47 51 50 46 47 47 38 24 22 34 47 51 47 40 31 46 48 48 36 34 42 54 63 70 61 53 52 36 41 46 54 91 100 100 100 98 98 73 63 80
41 53 59 98 98 96 70 81 42 56 53 57 45 39 28 22 20 21 35 48 54 49 40 33 48 58 69 79 79 69 70 73 73 89 90 73 63 88 81 66 81 83 98 97 98 100 94 70 82
54 53 89 88 96 90 83 80 47 47 48 55 31 22 20 21 20 20 38 53 57 54 48 37 46 67 74 77 98 98 98 99 84 72 98 95 83 89 71 90 90 99 100 99 100 99 92 82 72
60 67 72 62 95 90 78 69 31 41 46 42 34 19 20 24 23 20 29 50 59 56 58 51 52 60 85 98 98 94 100 81 99 98 99 97 79 82 91 70 91 99 99 99 99 86 39 29 36
74 85 63 61 84 90 56 46 33 37 41 51 39 24 23 29 27 26 26 34 56 61 58 55 68 96 91 100 99 98 97 99 94 99 99 100 89 92 96 99 99 98 88 78 57 53 49 44 41
64 72 71 87 88 89 62 52 30 38 49 56 44 42 40 30 34 32 31 32 34 49 61 67 84 94 95 99 99 99 100 100 99 99 100 100 100 84 96 100 90 100 93 64 62 76 71 62 52
61 74 65 71 76 90 88 44 44 43 51 47 46 46 47 42 37 39 40 39 37 36 43 72 90 98 100 100 100 98 100 99 100 99 99 99 92 98 99 99 100 100 96 82 84 96 97 99 97
65 62 71 64 55 65 67 59 33 31 45 50 44 55 55 52 42 43 43 46 48 46 48 56 65 70 75 78 75 69 73 88 90 92 95 97 98 96 96 98 98 97 97 97 94 83 87 89 94

GFSSGP_700_rhum_120.txt.gz
RH
10 9 8 6 7 9 26 30 30 29 27 24 22 23 20 23 31 38 46 39 47 47 44 48 53 57 67 61 58 57 53 54 54 57 59 64 48 60 38 18 18 20 28 41 58 65 59 48 39
10 9 8 6 10 13 30 31 29 28 26 23 21 16 16 26 31 38 41 36 40 41 39 38 46 52 62 67 61 60 59 55 57 58 58 59 58 50 74 23 25 21 31 51 59 74 62 54 45
10 8 8 7 20 26 27 33 33 29 25 23 19 16 18 21 24 34 40 33 31 34 40 42 39 50 58 70 67 62 62 60 57 56 56 57 59 61 55 48 30 26 32 62 68 72 63 56 49
8 8 10 13 28 32 36 34 33 29 27 26 15 15 16 18 22 26 31 30 31 34 42 47 61 58 55 63 65 69 69 69 68 62 60 59 57 55 54 60 44 38 33 48 80 78 65 59 53
8 9 12 28 30 37 39 40 39 34 28 19 16 17 19 20 18 18 18 18 20 28 36 48 63 68 80 72 69 68 70 72 70 66 68 67 59 57 58 59 66 49 41 42 68 85 72 62 57
9 10 13 38 36 35 41 38 34 29 24 22 19 17 17 18 21 19 20 22 19 18 19 30 50 58 68 71 76 78 77 73 68 67 66 65 61 58 59 63 61 66 62 45 55 89 90 71 60
10 11 19 33 36 37 38 35 30 26 18 19 19 18 16 15 15 16 18 17 17 16 17 17 21 34 44 43 48 47 53 58 64 59 57 69 63 54 55 62 66 62 66 70 56 74 94 93 80
13 16 29 40 34 32 31 32 25 16 18 21 18 9 7 7 8 9 8 7 9 14 16 16 17 17 18 20 24 31 36 40 46 49 71 73 63 61 60 62 64 62 58 61 70 64 76 88 90
16 27 32 38 39 35 32 29 19 15 12 11 10 6 5 6 6 6 6 6 6 6 7 9 11 13 15 17 19 24 29 31 50 62 69 73 75 72 72 70 69 67 62 58 58 68 70 70 75
19 24 32 32 33 31 28 15 10 9 7 6 6 6 6 7 6 6 6 6 6 6 6 6 6 6 7 8 11 13 19 26 34 48 66 77 76 76 76 76 77 74 71 70 60 56 60 65 68
20 22 27 30 28 28 17 9 7 6 6 6 6 7 7 7 7 7 7 7 6 6 6 6 6 6 6 5 5 5 7 11 19 31 44 62 74 77 79 75 78 81 77 74 71 56 40 52 66
25 25 26 28 26 13 9 7 6 6 6 6 7 8 7 7 7 7 7 7 7 6 6 6 6 6 6 6 6 6 6 6 8 14 28 38 48 54 72 70 65 73 81 80 80 76 64 38 36
20 22 24 23 13 9 7 6 6 6 7 7 8 8 8 8 8 7 7 7 6 6 6 6 6 6 6 7 7 7 8 7 7 7 10 17 34 43 43 53 55 63 76 80 74 82 86 81 60
16 16 14 11 9 8 7 6 6 6 8 9 10 10 9 8 8 7 6 6 6 6 6 6 7 9 10 9 10 10 10 10 10 10 10 8 11 37 52 53 46 51 64 63 58 67 84 87 84
14 12 10 10 8 8 7 7 7 9 10 10 11 10 9 8 7 6 6 6 7 10 12 16 17 20 20 19 19 19 19 19 19 19 17 14 12 9 33 52 58 50 45 52 54 83 90 90 85
13 12 11 10 10 10 9 9 10 11 11 10 10 9 8 6 6 7 14 19 22 23 25 26 27 28 30 31 31 30 27 23 19 17 17 19 19 15 12 34 53 64 64 64 72 85 94 90 86
13 14 13 16 15 14 13 12 12 12 11 9 8 7 6 6 12 22 27 30 28 26 26 27 30 32 30 26 23 23 23 22 20 18 19 19 19 21 20 14 40 65 66 72 76 76 80 81 87
11 11 13 14 13 13 13 12 12 12 11 9 8 7 8 20 31 36 35 33 31 30 30 33 36 32 28 26 22 20 20 22 26 26 26 22 18 20 22 22 15 41 67 72 82 78 80 82 84
16 21 21 18 15 14 14 13 11 10 8 8 7 8 23 34 38 37 32 28 28 30 32 37 36 33 30 25 24 26 28 31 35 39 41 37 29 19 18 21 23 15 35 58 73 88 81 69 84
16 18 17 17 16 17 14 11 9 8 8 10 15 26 38 40 40 37 29 19 21 29 36 40 38 37 32 28 29 31 21 18 22 36 46 49 45 32 20 17 33 28 26 50 67 77 87 92 93
17 17 17 18 15 15 13 12 11 11 15 20 26 38 40 40 39 37 28 16 16 27 39 43 42 35 28 37 39 24 26 26 39 58 47 36 38 40 31 19 32 61 49 52 61 76 78 86 100
18 22 23 20 21 27 24 35 12 13 19 28 36 45 37 38 39 26 17 14 14 32 40 42 40 27 33 42 39 44 49 45 38 46 62 62 51 37 33 31 20 32 62 55 58 79 90 99 100
22 21 26 33 38 38 38 61 22 20 26 34 48 47 35 29 19 18 15 13 18 38 42 41 39 30 37 48 46 58 61 66 67 60 72 80 66 55 54 34 27 23 60 75 75 98 100 97 99
28 35 43 51 71 83 60 68 34 31 32 41 53 49 27 17 16 17 16 12 29 46 49 46 41 34 44 46 48 52 68 59 74 80 82 85 80 87 98 82 67 42 48 68 96 99 99 100 94
40 46 44 62 87 85 87 88 39 46 44 48 61 40 27 16 18 19 17 15 21 47 48 46 49 40 48 48 53 46 61 72 70 90 98 98 98 100 99 92 88 77 62 55 68 64 99 99 100
48 45 53 48 85 88 65 64 24 34 40 53 56 41 33 29 23 19 20 18 16 32 49 50 49 44 48 45 54 57 66 65 73 93 98 98 99 99 100 85 98 99 83 74 64 83 97 99 99
62 59 58 52 79 97 53 36 19 22 34 42 48 45 42 36 31 21 23 22 19 17 18 28 48 52 55 56 55 65 63 71 72 83 82 80 98 99 92 100 95 98 94 92 96 89 97 99 95
54 59 66 74 71 80 52 44 9 13 22 38 46 45 39 36 31 31 26 29 26 24 20 17 22 48 55 52 41 50 62 66 75 80 89 94 86 91 98 99 97 100 98 81 91 93 94 84 80
53 73 69 62 69 91 84 35 9 17 24 28 42 42 40 36 42 39 31 33 36 34 31 22 18 18 20 22 22 22 23 24 23 37 30 25 37 50 64 79 83 88 94 100 99 99 98 90 100
60 71 70 62 51 66 74 49 21 19 21 25 36 34 36 39 46 48 46 40 40 43 40 36 27 25 24 23 24 23 21 19 16 14 11 9 8 7 6 7 8 11 47 73 88 92 90 89 84

GFSSGP_700_rhum_123.txt.gz
RH
8 8 7 6 7 9 23 27 30 29 29 27 24 22 20 26 31 38 42 37 43 46 42 43 50 58 65 70 61 58 58 57 54 55 59 61 64 54 67 57 19 19 20 32 50 58 62 51 42
10 9 7 6 8 11 25 26 29 30 28 25 23 19 18 21 28 35 39 35 35 39 37 40 45 52 59 62 69 62 62 64 59 57 56 55 52 58 52 63 33 26 22 32 49 57 73 56 50
10 9 8 7 9 9 18 27 29 28 28 24 20 18 16 15 20 26 31 34 32 27 30 33 42 42 54 59 70 70 64 64 63 60 60 59 56 57 59 58 58 34 28 31 62 62 74 60 55
10 9 10 10 13 14 22 24 27 28 27 26 22 15 14 15 17 19 22 26 28 27 28 37 50 65 72 67 70 72 74 70 71 70 68 63 63 61 59 56 61 51 40 32 42 77 76 63 59
9 9 11 13 19 18 26 29 30 32 32 29 21 16 17 18 18 19 19 19 18 17 23 31 44 54 70 70 67 77 78 75 76 76 72 68 68 65 59 59 61 70 56 46 42 60 83 67 63
8 9 11 14 20 21 30 36 34 32 29 24 22 20 18 18 21 23 21 20 19 18 16 16 22 44 55 69 73 77 77 77 77 78 74 71 65 67 66 62 63 62 66 66 53 53 84 88 70
8 9 12 17 22 25 24 31 31 30 28 22 18 16 17 19 18 17 17 19 17 16 15 15 16 17 32 50 54 58 61 60 61 64 64 65 58 69 73 61 58 67 67 66 70 66 61 96 94
9 11 17 27 29 30 29 34 30 26 22 18 17 14 12 9 10 11 8 7 6 7 7 7 9 13 16 16 20 30 37 40 42 43 47 50 50 63 74 63 64 67 69 66 61 66 73 69 90
11 15 23 24 28 24 31 31 28 24 19 18 10 7 6 6 6 6 6 5 5 5 6 6 6 6 6 7 11 14 18 22 26 29 38 55 55 61 71 71 71 73 74 72 68 61 60 72 77
15 20 25 25 26 29 32 32 24 15 12 8 6 6 5 5 5 5 5 5 6 6 6 6 6 6 6 5 5 5 6 8 13 19 27 42 63 70 72 71 75 76 75 80 79 74 71 60 61
18 23 26 28 32 31 30 20 9 8 6 6 5 5 5 5 6 6 6 7 7 7 7 6 6 6 6 6 6 6 5 5 6 7 11 17 32 48 68 82 84 82 81 79 83 84 79 73 57
19 20 25 29 29 28 26 12 6 6 5 5 6 6 6 6 7 7 8 8 7 7 7 7 6 6 6 6 6 6 6 7 6 6 6 6 9 15 39 53 70 80 81 74 75 82 84 83 80
21 22 26 28 27 23 12 8 6 6 5 5 6 7 7 8 8 8 8 8 7 6 6 6 5 5 5 5 5 6 6 6 6 7 8 8 8 7 9 26 40 55 56 72 67 75 82 80 78
22 25 26 24 20 11 8 7 6 6 6 6 8 9 9 9 9 8 8 6 6 5 5 6 7 10 13 14 16 17 18 18 18 17 15 14 12 10 10 9 11 30 58 71 52 66 84 80 69
18 20 17 13 10 9 7 6 5 6 8 10 10 10 10 10 9 7 6 5 6 10 14 17 20 20 20 21 22 24 26 27 28 27 25 20 19 20 19 14 11 10 36 63 80 63 80 77 69
15 14 12 11 9 8 7 6 7 9 11 11 11 11 10 8 7 6 7 13 19 22 22 22 21 20 20 22 27 27 26 24 22 21 20 21 22 20 17 19 20 16 12 42 63 72 64 69 70
13 11 10 10 8 8 10 8 11 12 12 12 11 10 9 8 7 9 20 26 27 26 24 22 22 22 24 27 27 26 24 22 20 18 18 17 19 22 21 19 18 20 19 16 52 68 70 70 86
11 10 10 11 11 11 12 10 13 13 12 12 10 9 8 8 14 25 31 32 30 25 18 15 21 24 28 27 26 27 25 22 23 24 24 23 23 28 29 30 22 22 22 20 21 58 79 75 80
12 11 11 15 15 14 12 12 13 14 12 11 9 8 8 16 30 35 36 34 30 22 12 10 14 26 28 26 22 22 23 25 25 19 20 23 20 19 21 37 42 25 21 24 20 34 77 80 74
14 15 15 14 14 15 14 14 14 13 12 9 8 10 17 32 36 36 36 31 22 14 10 8 17 28 27 23 19 22 24 24 23 25 30 29 30 45 42 36 43 46 27 22 26 22 50 76 77
14 15 16 16 16 16 15 14 14 12 11 11 15 22 30 37 36 34 22 13 11 10 8 11 27 29 27 21 20 29 32 32 38 36 38 38 36 38 45 45 34 36 40 23 38 42 32 61 74
18 19 20 20 19 21 20 26 12 10 10 10 15 29 37 38 29 17 12 10 10 8 7 24 33 32 30 23 23 29 32 32 34 38 44 50 41 46 60 45 45 38 35 32 27 70 42 42 56
20 21 22 24 28 33 27 49 11 11 12 16 26 37 44 40 24 15 11 10 10 8 9 31 36 34 37 35 35 35 36 37 42 46 48 51 57 59 52 63 79 66 48 32 21 36 64 58 57
23 25 28 35 50 72 59 57 23 23 22 24 35 41 51 37 26 18 12 12 11 10 10 30 41 40 44 39 42 41 45 44 45 56 63 71 72 65 70 63 69 95 89 86 36 29 58 73 70
28 29 30 53 75 66 73 81 17 20 24 30 37 46 50 38 32 29 22 13 14 14 14 22 42 42 43 43 48 44 49 55 56 54 63 72 87 94 99 96 94 95 100 100 98 72 53 59 84
38 36 35 43 67 79 51 46 14 18 18 28 42 53 50 42 41 30 24 18 17 19 18 14 12 18 42 51 53 57 58 59 62 54 59 66 71 87 88 85 91 97 96 99 100 100 100 73 44
50 54 53 49 68 96 41 23 9 9 12 23 37 44 49 44 33 28 25 25 21 22 23 20 14 12 28 49 46 33 20 26 36 52 62 61 65 64 72 81 84 86 93 98 99 100 100 98 83
46 57 60 52 57 68 42 30 7 7 10 12 23 26 33 24 29 28 31 36 32 30 29 28 25 17 14 13 13 13 13 13 12 12 11 12 11 10 8 11 22 43 76 86 89 96 98 99 99
52 61 60 58 59 84 78 26 7 10 16 17 15 18 24 31 35 37 37 36 39 38 34 34 35 29 20 18 18 17 16 14 14 14 13 11 9 7 5 5 4 4 6 12 48 86 91 88 87
40 49 57 60 54 63 71 43 14 13 14 16 18 25 28 32 36 35 35 36 39 44 44 40 39 38 32 24 22 22 22 21 20 19 18 17 15 11 8 6 5 4 4 4 4 4 5 9 16

GFSSGP_700_rhum_126.txt.gz
RH
7 6 6 5 6 9 22 26 28 29 30 30 25 23 26 29 34 40 41 34 31 40 39 40 44 50 59 68 70 62 58 59 63 59 55 57 57 55 60 53 60 30 24 22 34 49 79 55 50
8 7 7 6 8 11 24 24 28 27 28 27 26 22 20 22 26 30 39 35 31 30 32 32 42 54 51 57 66 71 66 61 63 64 61 60 58 57 58 61 60 56 32 24 32 52 72 70 59
9 8 7 6 8 9 18 24 28 30 29 27 23 20 18 15 17 22 27 29 30 30 26 19 41 45 54 53 57 66 75 69 66 65 64 64 63 59 58 58 58 61 49 34 30 56 66 76 63
10 9 9 8 9 12 18 22 25 30 28 24 22 19 18 15 15 17 18 19 20 20 20 21 26 48 66 69 63 62 67 74 76 74 74 71 68 65 65 63 59 58 62 52 41 50 73 78 66
10 9 10 10 10 13 16 19 23 25 27 27 26 21 17 18 17 18 18 18 18 17 16 17 20 27 48 67 67 66 62 66 74 76 75 71 71 69 68 66 63 62 62 66 62 46 53 83 70
9 10 10 10 11 14 20 23 26 29 30 28 24 21 20 20 20 20 21 19 18 18 17 16 16 17 21 32 48 62 65 68 71 72 73 69 64 60 62 60 67 63 60 63 68 70 56 59 85
9 10 9 10 12 14 18 26 30 31 28 25 23 20 19 19 19 18 16 14 16 15 14 15 15 15 15 16 27 39 47 54 61 63 60 59 57 54 54 54 60 68 59 62 67 69 74 69 71
9 10 10 11 12 13 16 24 26 28 28 24 18 17 17 14 9 10 7 6 6 6 6 6 6 6 6 8 13 16 18 28 37 41 43 44 42 42 48 48 52 66 62 64 66 68 67 67 76
10 11 10 12 14 14 18 25 29 26 26 21 18 15 9 6 6 6 5 5 5 5 5 5 5 5 5 5 5 6 6 9 13 18 20 22 24 27 40 51 57 68 68 70 73 71 72 69 65
12 13 14 15 15 21 24 27 27 27 22 17 11 6 6 5 4 4 4 5 6 6 6 6 6 6 6 6 6 6 5 5 6 6 8 11 16 23 29 48 67 69 70 72 75 76 80 78 74
13 18 20 18 20 22 29 31 28 16 11 8 6 5 4 4 4 5 6 7 7 7 7 7 7 7 6 6 6 6 6 6 6 6 6 6 6 7 12 22 42 63 77 79 77 76 80 81 82
18 20 22 24 27 29 30 27 16 8 6 5 5 5 4 4 5 7 8 8 8 8 7 7 7 6 6 6 6 6 6 6 6 6 6 6 6 7 6 6 8 19 47 63 75 77 76 77 83
19 20 23 28 30 28 28 25 13 7 5 5 6 5 5 6 8 9 9 9 8 8 7 6 6 5 5 6 6 7 8 8 9 10 10 9 7 6 6 7 8 8 8 30 53 62 69 73 70
17 22 24 28 28 27 24 15 9 7 6 6 6 6 8 9 10 10 9 8 8 7 6 6 9 13 17 18 19 19 20 20 20 21 21 22 20 19 17 14 11 10 11 10 12 23 44 55 68
22 26 28 27 25 21 14 9 7 6 6 6 7 9 10 10 10 10 8 7 6 6 8 15 19 20 20 19 19 20 20 21 22 22 22 22 22 22 23 24 23 21 17 16 14 11 18 55 69
20 22 21 18 14 11 10 7 6 6 6 8 10 11 11 11 10 9 7 6 6 11 18 21 21 19 16 16 20 21 21 21 20 20 20 19 18 17 16 16 17 19 21 20 18 19 13 28 64
16 14 15 13 12 10 9 7 6 8 10 11 12 12 12 11 9 8 7 9 16 22 24 24 20 12 8 8 21 22 19 16 16 16 16 18 17 16 16 16 17 17 18 21 20 19 22 16 37
14 12 11 10 10 9 9 6 8 10 12 12 13 12 11 10 9 8 10 19 26 27 25 21 14 8 6 8 22 21 16 14 19 19 19 19 20 22 22 21 24 22 18 18 27 26 21 24 20
13 11 10 9 9 9 9 7 8 13 14 13 13 12 11 9 10 12 22 29 30 27 16 8 6 6 7 19 24 19 16 20 24 25 25 26 30 28 29 30 28 27 28 27 30 37 31 23 25
12 13 13 13 11 12 13 12 13 14 14 14 13 12 10 10 13 23 31 30 21 11 7 5 5 6 19 26 21 18 18 19 21 23 26 27 31 32 37 34 39 44 41 40 41 38 44 28 24
13 13 13 15 16 17 17 15 13 12 13 12 10 10 13 16 24 32 30 22 13 8 6 5 5 15 29 28 28 29 24 27 27 31 34 38 36 36 36 39 42 37 42 44 41 35 47 35 25
15 17 18 19 19 19 20 24 15 12 10 8 10 14 16 23 32 34 29 22 12 8 7 6 6 18 28 29 33 29 27 30 29 30 29 32 40 44 47 45 46 39 58 60 56 45 45 62 42
18 19 20 19 20 26 25 38 12 10 9 12 13 18 26 33 37 38 30 20 17 12 9 8 7 16 30 34 36 34 37 40 36 39 41 36 47 47 54 52 53 58 71 67 77 81 63 62 56
21 22 21 26 42 67 53 57 13 14 14 18 21 23 32 40 43 38 30 30 22 13 11 10 9 8 16 20 34 42 46 46 47 48 48 43 50 54 54 59 74 74 77 90 99 100 89 77 50
25 24 24 45 61 60 52 59 13 13 16 19 25 32 39 43 43 37 37 29 18 17 13 14 13 10 9 11 22 40 50 53 48 45 55 56 59 63 66 68 68 71 94 90 86 98 99 99 78
32 31 31 36 62 62 44 42 10 8 9 11 13 25 32 36 32 34 28 23 20 21 18 18 18 16 11 11 25 39 36 21 13 12 15 30 43 36 23 12 27 36 55 78 91 98 98 97 100
38 40 43 46 65 86 33 16 5 6 6 7 9 12 17 17 20 22 23 23 24 25 26 22 23 22 18 13 13 12 12 11 11 11 10 9 9 8 6 6 5 4 4 6 47 84 95 99 100
33 50 56 45 45 49 32 22 6 6 6 10 12 17 16 20 24 24 23 25 24 26 30 30 28 28 25 22 16 15 14 14 14 14 14 15 15 15 14 12 9 6 5 4 4 8 47 82 95
44 56 54 52 49 78 70 24 8 9 11 13 13 18 21 27 30 34 31 30 28 30 31 30 33 32 32 31 26 20 18 18 18 19 20 20 20 19 19 18 17 13 8 5 4 3 3 4 9
41 47 49 54 48 57 72 38 13 11 11 15 20 27 33 35 41 48 40 32 25 26 33 33 38 39 38 36 34 31 25 22 21 22 22 22 21 21 19 18 16 15 12 7 4 4 4 4 4